Terminal Aerodrome Forecast
Issued by NWS

Home | Current Version | Previous Version | Text Only | Print | Product List | Glossary On
Versions: 1 2 3 4 5 6 7 8 9 10 11 12 13 14 15 16 17 18
000
FTAK31 PAJN 301700
TAFAPG
TAF
PAPG 301730Z 3018/0118 10005KT P6SM -SHRA SCT015 BKN025 OVC050
     FM302100 12006KT P6SM -SHRA BKN040 OVC060
     FM010200 20004KT P6SM -SHRA SCT020 BKN040 OVC060
     FM010800 20005KT P6SM BCFG VCSH SCT005 BKN040 BKN050
     FM011000 19005KT 3SM BR SCT005 BKN060
      AMD LTD TO CLD VIS AND WIND 0106/0115=

USA.gov is the U.S. government's official web portal to all federal, state and local government web resources and services.